Content
SEND FEEDBACK

Daily
Averages
Monthly
Summary
United States of America

LAKE GEORGE, NEW YORK


Home > North America > United States > New York
Elevation: 321 feet     Latitude: 43 21N     Longitude: 073 37W

WEATHER
 
SELECT A DAY
Number of Records: 213,156;   Date Range: 1/1/95 - 8/28/14
 
SHARE

PRINT THIS DATA

[ ← Previous Day ]
WEATHER ALMANAC - MARCH 15, 2013
[ Next Day → ]
[ °C ]   °F
Weather ElementAverageHighLow
Temperature29.3 °F33.8 °F (5:20 pm)18 °F (5:53 am)
Dewpoint21.3 °F30.2 °F (6:35 pm)3.9 °F (4:53 am)
Humidity73.4 %93 % (6:45 pm)44 % (10:53 am)
Barometer29.72 in29.97 in (1:53 am)29.60 in (5:45 pm)
Wind Speed8.6 mph17.3 mph (9:06 pm)
Wind Gust27.6 mph (9:13 pm)
Weather ElementAverage
Visibility5.5 mi
Wind DirectionSW (229.4 °)

Weather ElementTotal
Precipitation---
Heating Degree Days39.1 (Base 65)
Averaged from 48 records on March 15, 2013
WEATHER CONDITIONS BREAKOUT
WIND DIRECTION BREAKOUT
WEATHER BY HOUR - MARCH 15, 2013
[ °C ]   °F
Local TimeTemperatureDewpointHumidityBarometerVisibilityWind DirectionWind SpeedGust SpeedPrecipitationEventsConditions
1:53 AM21.9 °F7.0 °F53 %29.97 in10.0 miNorth (10°)4.6 mphOvercast
2:53 AM21.0 °F5.0 °F50 %29.97 in10.0 miNNW (330°)4.6 mphClear
3:53 AM21.0 °F5.0 °F50 %29.96 in10.0 miNNW (330°)9.2 mphClear
4:53 AM19.9 °F3.9 °F50 %29.96 in10.0 miNorth (350°)4.6 mphClear
5:53 AM18.0 °F5.0 °F57 %29.95 in10.0 miNorth (350°)6.9 mphClear
6:53 AM18.0 °F5.0 °F57 %29.94 in10.0 miNNW (340°)3.5 mphClear
7:53 AM19.9 °F6.1 °F55 %29.92 in10.0 miCalmClear
8:53 AM21.9 °F7.0 °F53 %29.91 in10.0 miSouth (190°)3.5 mphScattered Clouds
9:53 AM24.1 °F7.0 °F48 %29.87 in10.0 miSouth (180°)4.6 mphOvercast
10:53 AM26.1 °F7.0 °F44 %29.84 in10.0 miSouth (190°)5.8 mphOvercast
11:53 AM28.9 °F10.0 °F45 %29.80 in10.0 miSSE (160°)13.8 mphOvercast
12:53 PM32.0 °F16.0 °F52 %29.75 in10.0 miSouth (180°)9.2 mphOvercast
1:53 PM33.1 °F18.0 °F54 %29.71 in10.0 miSouth (190°)11.5 mph18.4 mph0.00 inOvercast
2:23 PM30.2 °F21.2 °F69 %29.67 in1.8 miSouth (170°)12.7 mph0.00 inSnowLight Snow
2:31 PM30.2 °F21.2 °F69 %29.67 in1.8 miSouth (180°)12.7 mph21.9 mph0.00 inSnowLight Snow
2:36 PM30.2 °F21.2 °F69 %29.67 in3.0 miSouth (170°)11.5 mph21.9 mph0.00 inSnowLight Snow
2:53 PM32.0 °F24.1 °F73 %29.69 in3.0 miSSW (210°)10.4 mph0.00 inSnowLight Snow
3:14 PM30.2 °F23.0 °F75 %29.65 in2.5 miSouth (190°)12.7 mph18.4 mph0.00 inSnowLight Snow
3:23 PM30.2 °F24.8 °F80 %29.65 in3.0 miSouth (190°)12.7 mph0.00 inSnowLight Snow
3:53 PM32.0 °F25.0 °F75 %29.67 in3.0 miSouth (190°)12.7 mph0.00 inSnowLight Snow
4:00 PM32.0 °F26.6 °F80 %29.63 in2.5 miSSW (200°)12.7 mph0.00 inSnowLight Snow
4:08 PM32.0 °F24.8 °F75 %29.63 in3.0 miSSW (200°)13.8 mph0.00 inSnowLight Snow
4:53 PM33.1 °F27.0 °F78 %29.65 in5.0 miSSW (200°)8.1 mph0.00 inSnowLight Snow
5:11 PM32.0 °F26.6 °F80 %29.61 in2.5 miSSW (200°)8.1 mph17.3 mph0.00 inSnowLight Snow
5:20 PM33.8 °F28.4 °F81 %29.61 in5.0 miSouth (190°)10.4 mph0.00 inSnowLight Snow
5:45 PM33.8 °F28.4 °F81 %29.60 in6.0 miSSW (200°)11.5 mph0.00 inSnowLight Snow
5:53 PM33.1 °F28.0 °F82 %29.63 in8.0 miSSW (200°)10.4 mph0.00 inMostly Cloudy
6:11 PM33.8 °F28.4 °F81 %29.60 in1.8 miSSW (210°)8.1 mph0.00 inSnowLight Snow
6:21 PM33.8 °F28.4 °F81 %29.60 in0.5 miSSW (200°)11.5 mph0.00 inFog-SnowSnow
6:35 PM33.8 °F30.2 °F87 %29.61 in1.8 miSSW (210°)5.8 mph0.00 inSnowLight Snow
6:45 PM32.0 °F30.2 °F93 %29.62 in1.5 miSSW (200°)5.8 mph0.00 inSnowLight Snow
6:49 PM32.0 °F30.2 °F93 %29.62 in2.0 miSouth (190°)5.8 mph0.00 inSnowLight Snow
6:53 PM32.0 °F30.0 °F92 %29.65 in2.5 miSouth (170°)4.6 mph0.00 inSnowLight Snow
6:57 PM32.0 °F30.2 °F93 %29.62 in2.5 miSouth (180°)3.5 mph0.00 inSnowLight Snow
7:09 PM32.0 °F28.4 °F87 %29.61 in4.0 miSouth (180°)4.6 mph0.00 inScattered Clouds
7:53 PM30.9 °F27.0 °F85 %29.66 in10.0 miCalm0.00 inClear
8:53 PM32.0 °F27.0 °F82 %29.69 in10.0 miNorth (350°)9.2 mphMostly Cloudy
9:03 PM30.2 °F28.4 °F93 %29.67 in1.8 miNorth (350°)12.7 mph0.00 inSnowLight Snow
9:06 PM30.2 °F28.4 °F93 %29.67 in1.0 miNNW (340°)17.3 mph24.2 mph0.00 inSnowLight Snow
9:13 PM30.2 °F26.6 °F86 %29.68 in0.5 miNorth (350°)17.3 mph27.6 mph0.00 inFog-SnowSnow
9:20 PM30.2 °F26.6 °F86 %29.68 in0.5 miNNW (340°)12.7 mph27.6 mph0.00 inFog-SnowSnow
9:28 PM30.2 °F26.6 °F86 %29.69 in0.5 miNW (320°)11.5 mph19.6 mph0.00 inFog-SnowSnow
9:41 PM30.2 °F26.6 °F86 %29.69 in2.0 miNW (320°)4.6 mph0.00 inSnowLight Snow
9:45 PM30.2 °F26.6 °F86 %29.69 in3.0 miNW (310°)5.8 mph0.00 inSnowLight Snow
9:53 PM30.9 °F26.1 °F82 %29.72 in9.0 miNW (320°)5.8 mph0.00 inOvercast
10:05 PM30.2 °F24.8 °F80 %29.70 in10.0 miNNW (330°)5.8 mphOvercast
10:53 PM30.0 °F21.9 °F72 %29.75 in10.0 miNNW (340°)8.1 mphMostly Cloudy
11:53 PM28.9 °F18.0 °F64 %29.78 in10.0 miNW (310°)10.4 mphOvercast
Hourly data recorded from KGFL, located miles away from Lake George, New York







STORIES FROM OUR PARTNERS